Location: Peach Mountain Observatory
(42.3967°N, 83.9367°W)
Time: 15:09:03
(UTC-05:00)

deb Explorer IX - Pass Details

Date: 02 February 2020
Orbit: 549 x 1099 km, 38.8° (Epoch: 22 February)

Event Time Altitude Azimuth Distance (km) Brightness Sun altitude
Rises 18:11:31 0° 219° (SW) 3,172 ? -4.5°
Reaches altitude 10° 18:14:05 10° 208° (SSW) 2,342 ? -4.9°
Maximum altitude 18:18:49 29° 150° (SSE) 1,554 ? -5.7°
Drops below altitude 10° 18:24:10 10° 93° (E) 2,679 ? -6.7°
Enters shadow 18:25:09 - 89° (E) 2,990 ? -6.9°
